Voltar ao catálogo

DELTA 1 DEB

AtivoSSO
NORAD 21367·DEBRIS·🇺🇸 United States

Lançado Jun 12, 1975 de Vandenberg Space Force Base

Loading…

Próximas Passagens (próximas 24 horas)

TLE

AtualizadoSource: Space-Track

Época: Sep 14, 2026, 10:24 UTC

1 21367U 75052CM  26257.43390324  .00000019  00000-0  12497-3 0  9994
2 21367  99.8003 324.5264 0074800 136.8319 288.8039 13.31448848714662

Acompanhe DELTA 1 DEB em tempo real com AllMySat

Download on the App Store